Tracking 28126 objects as of 2-Oct-2023
HD Live streaming from Space Station
objects crossing your sky now

STARLINK-6366

Track STARLINK-6366 now!
10-day predictions
STARLINK-6366 is classified as:


NORAD ID: 57380
Int'l Code: 2023-099BE
Perigee: 361.2 km
Apogee: 363.2 km
Inclination: 43.0 °
Period: 91.6 minutes
Semi major axis: 6733 km
RCS: Unknown
Launch date: July 16, 2023
Source: United States (US)
Launch site: AIR FORCE EASTERN TEST RANGE (AFETR)
Your satellite tracking list
Your tracking list is empty




NASA's NSSDC Master Catalog

Two Line Element Set (TLE):
1 57380U 23099BE  23274.69009612 -.00006082  00000-0 -43010-4 0  9997
2 57380  43.0000  20.0262 0001506 263.3067  96.7630 15.71333346 13251
Source of the keplerian elements: AFSPC